カタログに戻る

THORAD DELTA 1 DEB

LostSSO
NORAD 42618·DEBRIS·🇺🇸 United States

打ち上げ Nov 15, 1974 から Vandenberg Space Force Base

Loading…

次のパス (今後24時間)

TLE

古いSource: Space-Track

元期: Nov 5, 2017, 09:19 UTC

1 42618U 74089GK  17309.38881281 -.00000033  00000-0  93635-4 0  9995
2 42618 102.0802 278.8327 0045540 207.2713 152.5954 12.33537251611172

AllMySatでTHORAD DELTA 1 DEBをリアルタイム追跡

Download on the App Store